Notices

What's New in latest Release from April 7th, 2021:

- Updated Glossary, including Speed of Maximum Gust, and Total Hourly Precipitation

- Updated national and regional climate services offices contacts and prices information

- Addition of station inventory lists for 1981-2010, 1971-2000, and 1961-1990 Normals.

If you haven't already, please take our survey and provide feedback about our website: https://eccc.sondage-survey.ca/f/LanguageSelection.aspx?s=442ca660-fcf1-47c0-95a9-59707d6fd709

Hourly Data Report for December 06, 2004

SHERBROOKE A
QUEBEC

45°26'00.000" N
71°41'00.000" W
241.40 m
7028124
71610
YSC

Download Data

Hourly Data (December 2004)
Hourly Data Report for December 6, 2004
TIME
LST
Temp Definition
°C
Dew Point Definition
°C
Rel Hum Definition
%
Precip. Amount Definition
mm

Wind Dir Definition
10's deg

Wind Spd Definition
km/h
Visibility Definition
km
Stn Press Definition
kPa
Hmdx Definition


Wind Chill Definition


Weather Definition


00:00 -20.5 -23.3 78   20 6 15.0 99.83   -26  
01:00 -21.2 -24.3 76   16 4 15.0 99.86   -25  
02:00 -21.5 -24.8 75   13 6 15.0 99.91   -27  
03:00 -21.5 -24.9 74   10 6 15.0 99.95   -27  
04:00 -21.5 -25.1 73   13 4 15.0 99.96   -25  
05:00 -22.3 -26.3 70     0 15.0 99.99      
06:00 -22.0 -26.2 69   12 6 15.0 100.02   -27  
07:00 -22.1 -26.2 69     0 15.0 100.04      
08:00 -20.2 -23.9 72   10 6 24.1 100.06   -25 Mainly Clear
09:00 -17.8 -21.5 73   9 4 24.1 100.13   -21 Mainly Clear
10:00 -16.2 -19.3 77     0 24.1 100.17     Mostly Cloudy
11:00 -13.5 -16.6 77     0 24.1 100.11     Mostly Cloudy
12:00 -11.5 -15.4 73     0 24.1 100.03     Mostly Cloudy
13:00 -9.8 -16.0 61     0 24.1 99.99     Mostly Cloudy
14:00 -9.7 -16.1 60     0 24.1 99.94     Mostly Cloudy
15:00 -9.3 -16.8 54   3 4 24.1 99.93   -12 Mostly Cloudy
16:00 -10.2 -16.3 61   5 6 24.1 99.92   -14 Mostly Cloudy
17:00 -10.3 -16.2 62   4 7 24.1 99.92   -14 Mostly Cloudy
18:00 -10.0 -15.7 63   6 6 15.0 99.95   -14  
19:00 -10.8 -16.3 64   7 9 15.0 99.90   -16  
20:00 -11.0 -16.4 64   5 13 15.0 99.87   -17  
21:00 -10.9 -16.2 65   7 13 15.0 99.84   -17  
22:00 -10.8 -15.7 67   5 11 15.0 99.86   -17  
23:00 -10.6 -15.2 69   9 7 15.0 99.87   -15  

Notes on Data Quality.

Legend

  • E = Estimated
  • M = Missing
  • NA = Not Available*
  • [empty] = Indicates an unobserved value
Date modified: